Location: Unspecified
(0.0000°N, 0.0000°E)
Time: 15:22:06
(UTC+00:00)

Hubble Space Telescope - Visible Passes

Search period start: 24 January 2021 00:00
Search period end: 03 February 2021 00:00
Orbit: 536 x 539 km, 28.5° (Epoch: 23 January)

Date Brightness Start Highest point End Pass type
(mag) Time Alt. Az. Time Alt. Az. Time Alt. Az.
29 Jan 2.7 19:49:20 10° NNW 19:50:45 18° NNW 19:50:45 18° NNW visible
30 Jan 1.5 19:38:14 10° NW 19:41:27 38° N 19:41:27 38° N visible
31 Jan 0.7 19:27:15 10° NW 19:31:20 61° NNE 19:32:14 47° E visible
01 Feb 3.7 05:42:50 10° S 05:44:44 13° SSE 05:46:37 10° SE visible
01 Feb 0.7 19:16:22 10° WNW 19:20:30 89° NNE 19:23:07 22° ESE visible
02 Feb 3.5 05:31:11 10° SSW 05:33:57 17° SSE 05:36:42 10° ESE visible
02 Feb 1.1 19:05:35 10° WNW 19:09:40 64° SSW 19:13:46 10° SE visible
